| time (UTC) | temp C | wind direction | speed KPH | gust KPH | rain 1hr cm | rain 24hr cm | rain mn cm | humidity % | barometer mb |
| 20260905021802 | 22 | 269 | 1.6 | 12.9 | 0.00 | 0.00 | 0.00 | 66 | 1019.1 |
| 20260905020306 | 21 | 271 | 3.2 | 6.4 | 0.00 | 0.00 | 0.00 | 66 | 1019.0 |
| 20260905014803 | 22 | 234 | 3.2 | 9.7 | 0.00 | 0.00 | 0.00 | 65 | 1019.0 |
| 20260905013305 | 22 | 248 | 0.0 | 6.4 | 0.00 | 0.00 | 0.00 | 65 | 1018.8 |
| 20260905011812 | 22 | 300 | 1.6 | 6.4 | 0.00 | 0.00 | 0.00 | 64 | 1018.9 |
| 20260905010304 | 22 | 206 | 1.6 | 9.7 | 0.00 | 0.00 | 0.00 | 63 | 1018.8 |
| 20260905004805 | 23 | 275 | 3.2 | 14.5 | 0.00 | 0.00 | 0.00 | 61 | 1018.7 |
| 20260905003303 | 23 | 250 | 3.2 | 11.3 | 0.00 | 0.00 | 0.00 | 61 | 1018.8 |
| 20260905001804 | 22 | 229 | 3.2 | 11.3 | 0.00 | 0.00 | 0.00 | 61 | 1018.6 |
| 20260905000304 | 23 | 244 | 3.2 | 9.7 | 0.00 | 0.00 | 0.00 | 60 | 1018.3 |
| 20260904234801 | 23 | 265 | 3.2 | 9.7 | 0.00 | 0.00 | 0.00 | 60 | 1018.2 |
| 20260904233303 | 23 | 193 | 3.2 | 11.3 | 0.00 | 0.00 | 0.00 | 59 | 1018.2 |
| 20260904231803 | 23 | 218 | 4.8 | 16.1 | 0.00 | 0.00 | 0.00 | 58 | 1018.2 |
| 20260904230302 | 23 | 233 | 4.8 | 12.9 | 0.00 | 0.00 | 0.00 | 57 | 1018.2 |
| 20260904223300 | 23 | 290 | 3.2 | 6.4 | 0.00 | 0.00 | 0.00 | 57 | 1018.1 |
| 20260904221801 | 23 | 167 | 3.2 | 8.0 | 0.00 | 0.00 | 0.00 | 55 | 1017.9 |
| 20260904214804 | 24 | 202 | 4.8 | 16.1 | 0.00 | 0.00 | 0.00 | 54 | 1017.8 |
| 20260904213300 | 24 | 209 | 3.2 | 12.9 | 0.00 | 0.00 | 0.00 | 54 | 1017.7 |
| 20260904211801 | 24 | 218 | 3.2 | 11.3 | 0.00 | 0.00 | 0.00 | 53 | 1017.6 |
| 20260904210305 | 24 | 307 | 4.8 | 12.9 | 0.00 | 0.00 | 0.00 | 53 | 1017.7 |
| 20260904204801 | 24 | 276 | 3.2 | 9.7 | 0.00 | 0.00 | 0.00 | 53 | 1017.6 |
| 20260904203300 | 24 | 249 | 3.2 | 11.3 | 0.00 | 0.00 | 0.00 | 53 | 1017.6 |
| 20260904201801 | 23 | 234 | 1.6 | 6.4 | 0.00 | 0.00 | 0.00 | 54 | 1017.4 |
| 20260904200259 | 23 | 257 | 1.6 | 4.8 | 0.00 | 0.00 | 0.00 | 54 | 1017.4 |
| 20260904194759 | 23 | 242 | 1.6 | 8.0 | 0.00 | 0.00 | 0.00 | 54 | 1017.3 |
| 20260904193302 | 23 | 234 | 1.6 | 6.4 | 0.00 | 0.00 | 0.00 | 53 | 1017.3 |
| 20260904184759 | 25 | 255 | 1.6 | 6.4 | 0.00 | 0.00 | 0.00 | 50 | 1017.3 |
| 20260904183256 | 25 | 242 | 3.2 | 11.3 | 0.00 | 0.00 | 0.00 | 49 | 1017.0 |
| 20260904181756 | 25 | 214 | 1.6 | 4.8 | 0.00 | 0.00 | 0.00 | 48 | 1016.9 |
| 20260904180300 | 26 | 225 | 1.6 | 11.3 | 0.00 | 0.00 | 0.00 | 46 | 1016.8 |
| 20260904173257 | 27 | 236 | 4.8 | 14.5 | 0.00 | 0.00 | 0.00 | 44 | 1016.3 |
| 20260904171756 | 27 | 233 | 4.8 | 12.9 | 0.00 | 0.00 | 0.00 | 42 | 1016.2 |
| 20260904170259 | 28 | 286 | 6.4 | 19.3 | 0.00 | 0.00 | 0.00 | 40 | 1016.2 |
| 20260904164757 | 28 | 284 | 6.4 | 20.9 | 0.00 | 0.00 | 0.00 | 39 | 1016.2 |
| 20260904163259 | 29 | 267 | 6.4 | 17.7 | 0.00 | 0.00 | 0.00 | 37 | 1016.1 |
| 20260904161758 | 30 | 93 | 8.0 | 25.7 | 0.00 | 0.00 | 0.00 | 36 | 1016.3 |
| 20260904160256 | 30 | 283 | 6.4 | 22.5 | 0.00 | 0.00 | 0.00 | 35 | 1016.3 |
| 20260904154758 | 30 | 234 | 6.4 | 20.9 | 0.00 | 0.00 | 0.00 | 36 | 1016.5 |
| 20260904153258 | 31 | 236 | 8.0 | 20.9 | 0.00 | 0.00 | 0.00 | 35 | 1016.6 |
| 20260904150256 | 31 | 224 | 8.0 | 20.9 | 0.00 | 0.00 | 0.00 | 34 | 1016.8 |
| 20260904144756 | 31 | 299 | 8.0 | 20.9 | 0.00 | 0.00 | 0.00 | 32 | 1016.9 |
| 20260904143252 | 31 | 206 | 9.7 | 27.4 | 0.00 | 0.00 | 0.00 | 32 | 1017.1 |
| 20260904141752 | 32 | 327 | 8.0 | 25.7 | 0.00 | 0.00 | 0.00 | 32 | 1017.0 |
| 20260904140251 | 32 | 279 | 8.0 | 25.7 | 0.00 | 0.00 | 0.00 | 31 | 1017.3 |
| 20260904134754 | 32 | 329 | 6.4 | 20.9 | 0.00 | 0.00 | 0.00 | 32 | 1017.2 |
| 20260904133605 | 32 | 252 | 6.4 | 19.3 | 0.00 | 0.00 | 0.00 | 33 | 1017.3 |
| 20260904133055 | 32 | 225 | 8.0 | 17.7 | 0.00 | 0.00 | 0.00 | 32 | 1017.6 |
| 20260904124752 | 31 | 172 | 8.0 | 20.9 | 0.00 | 0.00 | 0.00 | 35 | 1017.9 |
| 20260904123248 | 31 | 232 | 8.0 | 19.3 | 0.00 | 0.00 | 0.00 | 37 | 1018.1 |
| 20260904121750 | 31 | 176 | 6.4 | 14.5 | 0.00 | 0.00 | 0.00 | 37 | 1018.4 |
| 20260904120248 | 31 | 252 | 6.4 | 19.3 | 0.00 | 0.00 | 0.00 | 38 | 1018.6 |
| 20260904114750 | 31 | 131 | 4.8 | 17.7 | 0.00 | 0.00 | 0.00 | 37 | 1018.9 |
| 20260904110247 | 30 | 229 | 4.8 | 20.9 | 0.00 | 0.00 | 0.00 | 41 | 1019.7 |
| 20260904103246 | 28 | 194 | 6.4 | 19.3 | 0.00 | 0.00 | 0.00 | 42 | 1020.2 |
| 20260904101744 | 28 | 278 | 6.4 | 22.5 | 0.00 | 0.00 | 0.00 | 43 | 1020.6 |
| 20260904094751 | 27 | 294 | 6.4 | 16.1 | 0.00 | 0.00 | 0.00 | 45 | 1021.1 |
| 20260904093240 | 27 | 213 | 4.8 | 14.5 | 0.00 | 0.00 | 0.00 | 45 | 1021.2 |
| 20260904084741 | 26 | 221 | 4.8 | 14.5 | 0.00 | 0.00 | 0.00 | 49 | 1021.7 |
| 20260904083239 | 26 | 256 | 4.8 | 14.5 | 0.00 | 0.00 | 0.00 | 50 | 1021.8 |
| 20260904080239 | 25 | 244 | 1.6 | 9.7 | 0.00 | 0.00 | 0.00 | 53 | 1021.8 |
| 20260904073236 | 23 | 262 | 3.2 | 11.3 | 0.00 | 0.00 | 0.00 | 57 | 1022.3 |
| 20260904071736 | 22 | 265 | 3.2 | 9.7 | 0.00 | 0.00 | 0.00 | 60 | 1022.2 |
| 20260904070236 | 21 | 225 | 3.2 | 11.3 | 0.00 | 0.00 | 0.00 | 62 | 1022.2 |
| 20260904064733 | 20 | 262 | 1.6 | 6.4 | 0.00 | 0.00 | 0.00 | 67 | 1022.3 |
| 20260904063235 | 19 | 226 | 3.2 | 11.3 | 0.00 | 0.00 | 0.00 | 68 | 1022.3 |
| 20260904061733 | 19 | 265 | 3.2 | 8.0 | 0.00 | 0.00 | 0.00 | 69 | 1022.2 |
| 20260904060231 | 18 | 295 | 1.6 | 9.7 | 0.00 | 0.00 | 0.00 | 69 | 1022.4 |
| 20260904054731 | 18 | 281 | 1.6 | 3.2 | 0.00 | 0.00 | 0.00 | 72 | 1022.5 |
| 20260904053231 | 18 | 269 | 0.0 | 1.6 | 0.00 | 0.00 | 0.00 | 72 | 1022.4 |
| 20260904051733 | 17 | 269 | 0.0 | 1.6 | 0.00 | 0.00 | 0.00 | 73 | 1022.4 |
| 20260904050226 | 17 | 269 | 0.0 | 0.0 | 0.00 | 0.00 | 0.00 | 74 | 1022.4 |
| 20260904043226 | 17 | 269 | 0.0 | 1.6 | 0.00 | 0.00 | 0.00 | 72 | 1022.4 |
| 20260904041723 | 18 | 269 | 0.0 | 1.6 | 0.00 | 0.00 | 0.00 | 71 | 1022.5 |
| 20260904040222 | 18 | 269 | 0.0 | 1.6 | 0.00 | 0.00 | 0.00 | 71 | 1022.5 |
| 20260904034722 | 17 | 269 | 0.0 | 0.0 | 0.00 | 0.00 | 0.00 | 71 | 1022.7 |
| 20260904031728 | 18 | 269 | 0.0 | 1.6 | 0.00 | 0.00 | 0.00 | 67 | 1022.6 |
| 20260904030228 | 19 | 269 | 1.6 | 8.0 | 0.00 | 0.00 | 0.00 | 66 | 1022.7 |
| 20260904024724 | 19 | 218 | 1.6 | 6.4 | 0.00 | 0.00 | 0.00 | 65 | 1022.7 |
| 20260904023216 | 19 | 236 | 1.6 | 4.8 | 0.00 | 0.00 | 0.00 | 66 | 1022.8 |